EW5040 Weather Reports


time (UTC)temp
F
wind
direction
speed
knots
gust
knots
rain 1hr
in
rain 24hr
in
rain mn
in
humidity
%
barometer
mb
20260506144512 47 63 0.0 2.6 0.01 0.96 0.37 96 1008.8
20260506143011 47 63 0.9 3.5 0.02 0.96 0.37 97 1008.5
20260506141508 47 63 0.0 2.6 0.01 0.95 0.36 97 1008.5
20260506140005 47 63 0.0 2.6 0.01 0.95 0.36 97 1008.5
20260506134505 46 63 0.0 2.6 0.01 0.95 0.36 97 1008.4
20260506133003 46 63 0.9 3.5 0.00 0.94 0.35 97 1008.1
20260506131502 46 63 0.9 4.3 0.01 0.94 0.35 97 1008.0
20260506130100 46 63 0.0 2.6 0.01 0.94 0.35 97 1008.0
20260506124559 46 63 0.0 3.5 0.01 0.94 0.35 97 1007.8
20260506123058 46 63 0.0 1.7 0.02 0.94 0.35 97 1007.8
20260506121555 46 63 0.9 2.6 0.01 0.93 0.34 97 1007.7
20260506120053 46 63 0.0 1.7 0.02 0.93 0.34 97 1007.5
20260506114558 45 63 0.0 3.5 0.03 0.93 0.34 97 1007.3
20260506113058 45 63 0.0 1.7 0.02 0.92 0.33 97 1007.2
20260506111551 45 63 0.0 4.3 0.03 0.92 0.33 97 1007.2
20260506110047 45 42 0.9 2.6 0.02 0.91 0.32 97 1007.4
20260506104555 45 48 0.0 1.7 0.02 0.90 0.31 97 1007.6
20260506103051 45 46 0.0 2.6 0.03 0.90 0.31 97 1007.3
20260506101549 45 53 0.0 5.2 0.03 0.89 0.30 97 1007.3
20260506100041 46 12 1.7 7.0 0.04 0.89 0.30 97 1007.2
20260506094537 46 51 0.9 2.6 0.05 0.88 0.28 97 1007.5
20260506093037 46 319 0.9 2.6 0.06 0.87 0.28 97 1007.8
20260506091535 46 12 0.0 2.6 0.06 0.86 0.27 97 1007.6
20260506090033 47 13 0.0 1.7 0.06 0.85 0.26 97 1007.7
20260506084539 47 13 0.9 3.5 0.06 0.83 0.24 97 1007.7
20260506083033 47 13 0.0 1.7 0.05 0.81 0.22 97 1007.2
20260506081529 47 13 0.0 1.7 0.05 0.80 0.21 97 1007.0
20260506073023 48 13 0.0 3.5 0.04 0.76 0.17 97 1007.3
20260506071522 48 315 0.0 0.9 0.05 0.75 0.16 97 1007.3
20260506061515 48 311 0.0 2.6 0.03 0.70 0.11 97 1007.8
20260506044503 48 168 0.0 1.7 0.04 0.68 0.04 97 1008.5
20260506043100 48 168 0.0 0.9 0.03 0.66 0.02 96 1008.3
20260506041556 48 168 0.0 0.9 0.02 0.65 0.01 96 1008.1
20260506040055 48 168 0.0 0.0 0.01 0.64 0.00 96 1008.0
20260506034553 48 168 0.0 0.9 0.03 0.66 0.64 96 1008.0
20260506033054 48 168 0.0 0.0 0.04 0.65 0.63 96 1008.0
20260506031553 48 168 0.0 0.9 0.05 0.65 0.63 96 1008.1
20260506030057 48 168 0.0 1.7 0.05 0.64 0.62 96 1008.3
20260506024557 48 168 0.0 1.7 0.05 0.63 0.61 96 1008.2
20260506023058 48 168 0.9 1.7 0.04 0.61 0.59 96 1008.2
20260506021604 48 168 0.0 1.7 0.02 0.59 0.56 96 1008.6
20260506020050 48 168 0.9 1.7 0.03 0.59 0.56 96 1008.6
20260506014550 48 168 0.0 2.6 0.03 0.62 0.56 96 1008.4
20260506013048 48 168 0.9 4.3 0.04 0.61 0.55 96 1008.7
20260506011545 49 197 1.7 3.5 0.07 0.61 0.55 96 1008.8
20260506010050 49 193 0.0 0.0 0.10 0.60 0.54 96 1008.2
20260506004547 49 193 0.0 0.0 0.14 0.59 0.53 95 1008.4
20260506003039 49 193 0.0 0.0 0.16 0.56 0.51 96 1008.5
20260506001543 49 193 0.0 0.0 0.15 0.54 0.48 96 1008.5
20260506000037 49 193 0.0 0.0 0.13 0.50 0.44 95 1008.3
20260505234555 49 193 0.0 0.0 0.10 0.45 0.39 95 1008.2
20260505233038 49 316 0.0 0.0 0.08 0.41 0.35 95 1007.8
20260505231534 49 316 0.0 0.0 0.09 0.39 0.33 95 1007.9
20260505230032 49 316 0.0 0.0 0.09 0.37 0.31 95 1007.3
20260505224534 49 316 0.0 1.7 0.10 0.35 0.28 95 1007.7
20260505223033 50 316 0.0 5.2 0.11 0.33 0.27 95 1007.8
20260505221528 50 338 1.7 5.2 0.11 0.30 0.24 95 1007.7
20260505220027 50 247 0.9 2.6 0.11 0.28 0.22 94 1007.8
20260505214554 50 257 0.9 4.3 0.12 0.25 0.19 94 1007.7
20260505213023 51 261 1.7 10.4 0.11 0.22 0.16 94 1007.3
20260505211520 51 219 1.7 7.0 0.08 0.19 0.13 93 1006.8
20260505210020 51 206 0.9 7.0 0.05 0.16 0.10 93 1006.7
20260505204519 51 192 2.6 6.1 0.02 0.13 0.07 91 1006.5
20260505203023 52 240 1.7 6.1 0.00 0.11 0.05 91 1006.1
20260505201523 52 215 2.6 6.1 0.00 0.11 0.05 91 1005.9
20260505200014 51 198 3.5 9.6 0.00 0.11 0.05 90 1006.0
20260505194514 52 218 4.3 10.4 0.00 0.11 0.05 87 1006.0
20260505193010 54 186 4.3 8.7 0.00 0.11 0.05 82 1005.7
20260505191509 56 175 3.5 8.7 0.00 0.11 0.05 79 1005.2
20260505190007 60 153 6.1 14.8 0.00 0.11 0.05 75 1005.4
20260505184506 63 146 5.2 13.0 0.00 0.11 0.05 72 1005.4
20260505183010 64 252 6.1 13.0 0.00 0.11 0.05 71 1005.0
20260505181501 63 189 4.3 15.6 0.00 0.11 0.05 74 1004.8
20260505180112 62 215 4.3 13.0 0.00 0.11 0.05 75 1004.7
20260505174606 62 244 6.1 20.0 0.00 0.11 0.05 75 1004.5
20260505173100 62 218 8.7 21.7 0.00 0.11 0.05 74 1004.4
20260505171558 62 250 8.7 19.1 0.00 0.11 0.05 75 1004.6
20260505170057 62 236 8.7 19.1 0.00 0.11 0.05 75 1004.7
20260505164557 63 252 9.6 20.9 0.00 0.11 0.05 72 1004.7
20260505163055 62 253 6.1 15.6 0.00 0.11 0.05 74 1004.3
20260505161604 62 215 6.1 18.2 0.00 0.11 0.05 74 1004.0
20260505153048 59 203 7.0 22.6 0.00 0.11 0.05 74 1004.5
20260505151545 61 244 6.1 17.4 0.00 0.11 0.05 71 1003.9